Location: Saratoga Springs
(43.0831°N, 73.7850°W)
Time: 00:50:18
(UTC-04:00)

Vanguard 1 Rocket - Pass Details

Date: 16 April 2024
Orbit: 651 x 4220 km, 34.3° (Epoch: 17 May)

Event Time Altitude Azimuth Distance (km) Brightness Sun altitude
Rises 03:47:56 0° 271° (W) 5,977 - -23.6°
Reaches altitude 10° 03:53:07 10° 255° (WSW) 5,547 - -22.9°
Maximum altitude 04:04:02 20° 217° (SW) 5,723 - -21.4°
Exits shadow 04:07:19 19° 207° (SSW) 6,000 11.0 -20.9°
Drops below altitude 10° 04:18:15 10° 181° (S) 7,275 11.6 -19.3°
Sets 04:27:13 0° 167° (SSE) 8,452 12.1 -18.0°
